| time (UTC) | temp F | wind direction | speed knots | gust knots | rain 1hr in | rain 24hr in | rain mn in | humidity % | barometer mb |
| 20260505041514 | 67 | 218 | 0.0 | 0.0 | 0.00 | 0.00 | 0.00 | 59 | 1006.0 |
| 20260505040014 | 67 | 221 | 0.0 | 0.0 | 0.00 | 0.00 | 0.00 | 59 | 1006.2 |
| 20260505034514 | 67 | 198 | 0.0 | 0.0 | 0.00 | 0.00 | 0.00 | 59 | 1006.1 |
| 20260505033011 | 67 | 210 | 0.0 | 0.0 | 0.00 | 0.00 | 0.00 | 59 | 1006.0 |
| 20260505031508 | 68 | 236 | 0.0 | 0.0 | 0.00 | 0.00 | 0.00 | 59 | 1006.0 |
| 20260505030007 | 67 | 248 | 0.0 | 0.0 | 0.00 | 0.00 | 0.00 | 59 | 1005.8 |
| 20260505024510 | 67 | 248 | 0.0 | 0.0 | 0.00 | 0.00 | 0.00 | 59 | 1005.6 |
| 20260505023005 | 68 | 150 | 0.0 | 0.0 | 0.00 | 0.00 | 0.00 | 59 | 1005.5 |
| 20260505021502 | 68 | 172 | 0.0 | 0.0 | 0.00 | 0.00 | 0.00 | 58 | 1005.3 |
| 20260505020106 | 68 | 226 | 0.0 | 0.0 | 0.00 | 0.00 | 0.00 | 58 | 1005.0 |
| 20260505014559 | 69 | 160 | 0.0 | 0.0 | 0.00 | 0.00 | 0.00 | 57 | 1005.0 |
| 20260505013106 | 69 | 193 | 0.0 | 0.0 | 0.00 | 0.00 | 0.00 | 56 | 1004.8 |
| 20260505011554 | 69 | 221 | 0.0 | 0.0 | 0.00 | 0.00 | 0.00 | 55 | 1004.8 |
| 20260505010109 | 70 | 232 | 0.0 | 0.0 | 0.00 | 0.00 | 0.00 | 54 | 1004.7 |
| 20260505004549 | 70 | 139 | 0.0 | 0.0 | 0.00 | 0.00 | 0.00 | 52 | 1004.7 |
| 20260505003049 | 71 | 182 | 0.0 | 0.0 | 0.00 | 0.00 | 0.00 | 50 | 1004.7 |
| 20260505001541 | 72 | 170 | 0.0 | 0.0 | 0.00 | 0.00 | 0.00 | 48 | 1004.8 |
| 20260505000045 | 73 | 237 | 0.0 | 5.2 | 0.00 | 0.00 | 0.00 | 47 | 1005.0 |
| 20260504234536 | 73 | 252 | 0.9 | 10.4 | 0.00 | 0.00 | 0.00 | 46 | 1005.2 |
| 20260504233038 | 74 | 245 | 0.9 | 11.3 | 0.00 | 0.00 | 0.00 | 44 | 1005.2 |
| 20260504231528 | 75 | 132 | 0.0 | 0.0 | 0.00 | 0.00 | 0.00 | 44 | 1005.4 |
| 20260504230028 | 75 | 221 | 0.0 | 11.3 | 0.00 | 0.00 | 0.00 | 44 | 1005.5 |
| 20260504224526 | 75 | 222 | 0.9 | 10.4 | 0.00 | 0.00 | 0.00 | 43 | 1005.6 |
| 20260504223025 | 75 | 234 | 1.7 | 12.2 | 0.00 | 0.00 | 0.00 | 45 | 1005.6 |
| 20260504221520 | 75 | 168 | 0.0 | 0.0 | 0.00 | 0.00 | 0.00 | 50 | 1005.4 |
| 20260504220017 | 75 | 271 | 0.0 | 3.5 | 0.00 | 0.00 | 0.00 | 48 | 1005.8 |
| 20260504214514 | 75 | 302 | 0.0 | 0.0 | 0.00 | 0.00 | 0.00 | 49 | 1006.0 |
| 20260504213016 | 74 | 264 | 0.0 | 0.0 | 0.00 | 0.00 | 0.00 | 48 | 1006.1 |
| 20260504211509 | 75 | 281 | 0.0 | 0.0 | 0.00 | 0.00 | 0.00 | 47 | 1006.3 |
| 20260504210006 | 75 | 268 | 0.0 | 8.7 | 0.00 | 0.00 | 0.00 | 47 | 1006.4 |
| 20260504204505 | 75 | 295 | 0.0 | 5.2 | 0.00 | 0.00 | 0.00 | 48 | 1006.5 |
| 20260504203002 | 74 | 95 | 0.0 | 9.6 | 0.00 | 0.00 | 0.00 | 49 | 1006.8 |
| 20260504201558 | 74 | 251 | 0.0 | 7.8 | 0.00 | 0.00 | 0.00 | 49 | 1007.0 |
| 20260504200057 | 73 | 219 | 0.0 | 11.3 | 0.00 | 0.00 | 0.00 | 49 | 1007.2 |
| 20260504194602 | 73 | 202 | 0.0 | 3.5 | 0.00 | 0.00 | 0.00 | 51 | 1007.5 |
| 20260504193052 | 71 | 296 | 2.6 | 13.0 | 0.00 | 0.00 | 0.00 | 53 | 1007.9 |
| 20260504191525 | 71 | 301 | 0.0 | 0.9 | 0.00 | 0.00 | 0.00 | 55 | 1008.0 |
| 20260504190018 | 69 | 245 | 0.9 | 10.4 | 0.00 | 0.00 | 0.00 | 59 | 1008.3 |
| 20260504184546 | 69 | 257 | 0.0 | 7.0 | 0.00 | 0.00 | 0.00 | 59 | 1008.3 |
| 20260504183047 | 69 | 280 | 0.0 | 0.0 | 0.00 | 0.00 | 0.00 | 59 | 1008.3 |
| 20260504181546 | 69 | 216 | 0.0 | 14.8 | 0.00 | 0.00 | 0.00 | 57 | 1008.1 |
| 20260504180044 | 69 | 215 | 0.9 | 9.6 | 0.00 | 0.00 | 0.00 | 57 | 1007.8 |
| 20260504174543 | 69 | 200 | 0.0 | 13.9 | 0.00 | 0.00 | 0.00 | 54 | 1007.7 |
| 20260504173041 | 69 | 267 | 0.0 | 11.3 | 0.00 | 0.00 | 0.00 | 58 | 1007.9 |
| 20260504171537 | 68 | 266 | 0.0 | 10.4 | 0.00 | 0.00 | 0.00 | 59 | 1007.3 |
| 20260504081537 | 51 | 210 | 0.0 | 0.0 | 0.00 | 0.00 | 0.00 | 63 | 1009.8 |
| 20260504050011 | 53 | 176 | 0.0 | 0.0 | 0.00 | 0.00 | 0.00 | 59 | 1011.4 |
| 20260504044514 | 53 | 168 | 0.0 | 0.0 | 0.00 | 0.00 | 0.00 | 59 | 1011.5 |
| 20260504043010 | 53 | 141 | 0.0 | 0.0 | 0.00 | 0.00 | 0.00 | 59 | 1011.5 |